Location: Oshawa
(43.9000°N, 78.8670°W)
Time: 08:44:46
(UTC-04:00)

Cosmos 1821 Rocket - Pass Details

Date: 03 May 2018
Orbit: 944 x 1006 km, 82.9° (Epoch: 20 May)

Event Time Altitude Azimuth Distance (km) Brightness Sun altitude
Rises 22:38:37 0° 220° (SW) 3,692 6.9 -20.6°
Reaches altitude 10° 22:41:33 10° 232° (SW) 2,739 6.4 -21.0°
Maximum altitude 22:46:49 28° 289° (WNW) 1,752 5.9 -21.6°
Drops below altitude 10° 22:52:04 10° 347° (NNW) 2,716 7.3 -22.1°
Sets 22:54:59 0° 359° (N) 3,657 7.9 -22.4°
